M I D A S
Marine Information and Data Acquisition System
Tripno 1320 of the Zeeleeuw from 2007-08-08 08:30:00 to 2007-08-08 14:00:00
Back to CruiseResearch ActivitiesStationsMapUnderway DataData graphs

EquipmentUnitsComments
TimeDGPSUTC
LatitudeDGPSDM.mWGS84
LongitudeDGPSDM.mWGS84
SpeedMeteo Stationm/sRelative wind speed
DirectionMeteo StationdegRelative wind direction
TemperatureMeteo Stationdeg CelciusAir temperature
PressureMeteo StationPaAtmospheric pressure
HumidityMeteo Station%Relative humidity
Missing or incorrect values are displayed as -999
Metereological data collected by the RV Zeeleeuw from 2007-08-08 08:30:00 to 2007-08-08 14:00:00
Time Latitude Longitude Speed Direction Temperature Pressure Humidity
2007-08-08 08:31 51°13.602 2°56.1 -999 -999 -999 -999 -999
2007-08-08 08:32 51°13.601 2°56.099 -999 -999 -999 -999 -999
2007-08-08 08:33 51°13.613 2°56.052 -999 -999 -999 -999 -999
2007-08-08 08:34 51°13.642 2°55.95 -999 -999 -999 -999 -999
2007-08-08 08:35 51°13.694 2°55.839 -999 -999 -999 -999 -999
2007-08-08 08:36 51°13.761 2°55.714 -999 -999 -999 -999 -999
2007-08-08 08:37 51°13.848 2°55.627 -999 -999 -999 -999 -999
2007-08-08 08:38 51°13.926 2°55.641 -999 -999 -999 -999 -999
2007-08-08 08:39 51°13.949 2°55.661 -999 -999 -999 -999 -999
2007-08-08 08:40 51°13.976 2°55.592 -999 -999 -999 -999 -999
2007-08-08 08:41 51°14.069 2°55.483 -999 -999 -999 -999 -999
2007-08-08 08:42 51°14.183 2°55.366 -999 -999 -999 -999 -999
2007-08-08 08:43 51°14.284 2°55.211 -999 -999 -999 -999 -999
2007-08-08 08:44 51°14.372 2°55.034 -999 -999 -999 -999 -999
2007-08-08 08:45 51°14.472 2°54.849 -999 -999 -999 -999 -999
2007-08-08 08:46 51°14.568 2°54.667 -999 -999 -999 -999 -999
2007-08-08 08:47 51°14.654 2°54.471 -999 -999 -999 -999 -999
2007-08-08 08:48 51°14.723 2°54.227 -999 -999 -999 -999 -999
2007-08-08 08:49 51°14.8 2°53.952 -999 -999 -999 -999 -999
2007-08-08 08:50 51°14.884 2°53.657 -999 -999 -999 -999 -999
2007-08-08 08:51 51°14.972 2°53.359 -999 -999 -999 -999 -999
2007-08-08 08:52 51°15.047 2°53.056 -999 -999 -999 -999 -999
2007-08-08 08:53 51°15.121 2°52.751 -999 -999 -999 -999 -999
2007-08-08 08:54 51°15.195 2°52.447 -999 -999 -999 -999 -999
2007-08-08 08:55 51°15.267 2°52.144 -999 -999 -999 -999 -999
2007-08-08 08:56 51°15.303 2°51.824 -999 -999 -999 -999 -999
2007-08-08 08:57 51°15.339 2°51.505 -999 -999 -999 -999 -999
2007-08-08 08:58 51°15.375 2°51.186 -999 -999 -999 -999 -999
2007-08-08 08:59 51°15.411 2°50.868 -999 -999 -999 -999 -999
2007-08-08 09:00 51°15.45 2°50.549 -999 -999 -999 -999 -999
2007-08-08 09:01 51°15.489 2°50.23 -999 -999 -999 -999 -999
2007-08-08 09:02 51°15.53 2°49.909 -999 -999 -999 -999 -999
2007-08-08 09:03 51°15.571 2°49.588 -999 -999 -999 -999 -999
2007-08-08 09:04 51°15.608 2°49.268 -999 -999 -999 -999 -999
2007-08-08 09:05 51°15.648 2°48.951 -999 -999 -999 -999 -999
2007-08-08 09:06 51°15.687 2°48.632 -999 -999 -999 -999 -999
2007-08-08 09:07 51°15.729 2°48.309 -999 -999 -999 -999 -999
2007-08-08 09:08 51°15.78 2°47.991 -999 -999 -999 -999 -999
2007-08-08 09:09 51°15.835 2°47.681 -999 -999 -999 -999 -999
2007-08-08 09:10 51°15.867 2°47.364 -999 -999 -999 -999 -999
2007-08-08 09:11 51°15.892 2°47.047 -999 -999 -999 -999 -999
2007-08-08 09:12 51°15.924 2°46.729 -999 -999 -999 -999 -999
2007-08-08 09:13 51°15.99 2°46.427 -999 -999 -999 -999 -999
2007-08-08 09:14 51°16.072 2°46.134 -999 -999 -999 -999 -999
2007-08-08 09:15 51°16.154 2°45.839 -999 -999 -999 -999 -999
2007-08-08 09:16 51°16.248 2°45.548 -999 -999 -999 -999 -999
2007-08-08 09:17 51°16.352 2°45.26 -999 -999 -999 -999 -999
2007-08-08 09:18 51°16.462 2°44.975 -999 -999 -999 -999 -999
2007-08-08 09:19 51°16.576 2°44.698 -999 -999 -999 -999 -999
2007-08-08 09:20 51°16.696 2°44.424 -999 -999 -999 -999 -999
2007-08-08 09:21 51°16.818 2°44.152 -999 -999 -999 -999 -999
2007-08-08 09:22 51°16.938 2°43.88 -999 -999 -999 -999 -999
2007-08-08 09:23 51°17.057 2°43.61 -999 -999 -999 -999 -999
2007-08-08 09:24 51°17.179 2°43.347 -999 -999 -999 -999 -999
2007-08-08 09:25 51°17.3 2°43.084 -999 -999 -999 -999 -999
2007-08-08 09:26 51°17.422 2°42.825 -999 -999 -999 -999 -999
2007-08-08 09:27 51°17.545 2°42.561 -999 -999 -999 -999 -999
2007-08-08 09:28 51°17.67 2°42.294 -999 -999 -999 -999 -999
2007-08-08 09:29 51°17.797 2°42.027 -999 -999 -999 -999 -999
2007-08-08 09:30 51°17.927 2°41.762 -999 -999 -999 -999 -999
2007-08-08 09:31 51°18.054 2°41.492 -999 -999 -999 -999 -999
2007-08-08 09:32 51°18.18 2°41.224 -999 -999 -999 -999 -999
2007-08-08 09:33 51°18.306 2°40.962 -999 -999 -999 -999 -999
2007-08-08 09:34 51°18.428 2°40.703 -999 -999 -999 -999 -999
2007-08-08 09:35 51°18.555 2°40.444 -999 -999 -999 -999 -999
2007-08-08 09:36 51°18.678 2°40.183 -999 -999 -999 -999 -999
2007-08-08 09:37 51°18.802 2°39.921 -999 -999 -999 -999 -999
2007-08-08 09:38 51°18.929 2°39.655 -999 -999 -999 -999 -999
2007-08-08 09:39 51°19.056 2°39.389 -999 -999 -999 -999 -999
2007-08-08 09:40 51°19.181 2°39.121 -999 -999 -999 -999 -999
2007-08-08 09:41 51°19.307 2°38.851 -999 -999 -999 -999 -999
2007-08-08 09:42 51°19.435 2°38.58 -999 -999 -999 -999 -999
2007-08-08 09:43 51°19.56 2°38.307 -999 -999 -999 -999 -999
2007-08-08 09:44 51°19.684 2°38.036 -999 -999 -999 -999 -999
2007-08-08 09:45 51°19.808 2°37.767 -999 -999 -999 -999 -999
2007-08-08 09:46 51°19.915 2°37.521 -999 -999 -999 -999 -999
2007-08-08 09:47 51°19.95 2°37.403 -999 -999 -999 -999 -999
2007-08-08 09:48 51°19.964 2°37.346 -999 -999 -999 -999 -999
2007-08-08 09:49 51°19.98 2°37.283 -999 -999 -999 -999 -999
2007-08-08 09:50 51°20.003 2°37.182 -999 -999 -999 -999 -999
2007-08-08 09:51 51°20.035 2°37.086 -999 -999 -999 -999 -999
2007-08-08 09:52 51°20.059 2°37.029 -999 -999 -999 -999 -999
2007-08-08 09:53 51°20.068 2°36.983 -999 -999 -999 -999 -999
2007-08-08 09:54 51°20.078 2°36.943 -999 -999 -999 -999 -999
2007-08-08 09:55 51°20.086 2°36.907 -999 -999 -999 -999 -999
2007-08-08 09:56 51°20.096 2°36.879 -999 -999 -999 -999 -999
2007-08-08 09:57 51°20.105 2°36.85 -999 -999 -999 -999 -999
2007-08-08 09:58 51°20.109 2°36.827 -999 -999 -999 -999 -999
2007-08-08 09:59 51°20.1 2°36.857 -999 -999 -999 -999 -999
2007-08-08 10:00 51°20.096 2°36.918 -999 -999 -999 -999 -999
2007-08-08 10:01 51°20.095 2°36.952 -999 -999 -999 -999 -999
2007-08-08 10:02 51°20.094 2°36.971 -999 -999 -999 -999 -999
2007-08-08 10:03 51°20.089 2°36.979 -999 -999 -999 -999 -999
2007-08-08 10:04 51°20.086 2°36.98 -999 -999 -999 -999 -999
2007-08-08 10:05 51°20.083 2°36.978 -999 -999 -999 -999 -999
2007-08-08 10:06 51°20.081 2°36.97 -999 -999 -999 -999 -999
2007-08-08 10:07 51°20.083 2°36.948 -999 -999 -999 -999 -999
2007-08-08 10:08 51°20.086 2°36.921 -999 -999 -999 -999 -999
2007-08-08 10:09 51°20.09 2°36.897 -999 -999 -999 -999 -999
2007-08-08 10:10 51°20.092 2°36.881 -999 -999 -999 -999 -999
2007-08-08 10:11 51°20.093 2°36.871 -999 -999 -999 -999 -999
2007-08-08 10:12 51°20.091 2°36.868 -999 -999 -999 -999 -999
2007-08-08 10:13 51°20.085 2°36.867 -999 -999 -999 -999 -999
2007-08-08 10:14 51°20.081 2°36.867 -999 -999 -999 -999 -999
2007-08-08 10:15 51°20.076 2°36.869 -999 -999 -999 -999 -999
2007-08-08 10:16 51°20.07 2°36.873 -999 -999 -999 -999 -999
2007-08-08 10:17 51°20.064 2°36.877 -999 -999 -999 -999 -999
2007-08-08 10:18 51°20.058 2°36.883 -999 -999 -999 -999 -999
2007-08-08 10:19 51°20.05 2°36.89 -999 -999 -999 -999 -999
2007-08-08 10:20 51°20.042 2°36.895 -999 -999 -999 -999 -999
2007-08-08 10:21 51°20.035 2°36.899 -999 -999 -999 -999 -999
2007-08-08 10:22 51°20.028 2°36.903 -999 -999 -999 -999 -999
2007-08-08 10:23 51°20.02 2°36.906 -999 -999 -999 -999 -999
2007-08-08 10:24 51°20.012 2°36.907 -999 -999 -999 -999 -999
2007-08-08 10:25 51°20.005 2°36.908 -999 -999 -999 -999 -999
2007-08-08 10:26 51°20 2°36.906 -999 -999 -999 -999 -999
2007-08-08 10:27 51°19.994 2°36.906 -999 -999 -999 -999 -999
2007-08-08 10:28 51°19.988 2°36.906 -999 -999 -999 -999 -999
2007-08-08 10:29 51°19.981 2°36.909 -999 -999 -999 -999 -999
2007-08-08 10:30 51°19.974 2°36.913 -999 -999 -999 -999 -999
2007-08-08 10:31 51°19.967 2°36.917 -999 -999 -999 -999 -999
2007-08-08 10:32 51°19.96 2°36.92 -999 -999 -999 -999 -999
2007-08-08 10:33 51°19.954 2°36.923 -999 -999 -999 -999 -999
2007-08-08 10:34 51°19.948 2°36.924 -999 -999 -999 -999 -999
2007-08-08 10:35 51°19.942 2°36.924 -999 -999 -999 -999 -999
2007-08-08 10:36 51°19.936 2°36.923 -999 -999 -999 -999 -999
2007-08-08 10:37 51°19.93 2°36.921 -999 -999 -999 -999 -999
2007-08-08 10:38 51°19.925 2°36.92 -999 -999 -999 -999 -999
2007-08-08 10:39 51°19.917 2°36.92 -999 -999 -999 -999 -999
2007-08-08 10:40 51°19.909 2°36.923 -999 -999 -999 -999 -999
2007-08-08 10:41 51°19.902 2°36.926 -999 -999 -999 -999 -999
2007-08-08 10:42 51°19.895 2°36.921 -999 -999 -999 -999 -999
2007-08-08 10:43 51°19.909 2°36.878 -999 -999 -999 -999 -999
2007-08-08 10:44 51°19.975 2°36.848 -999 -999 -999 -999 -999
2007-08-08 10:45 51°20.037 2°36.842 -999 -999 -999 -999 -999
2007-08-08 10:46 51°20.05 2°36.844 -999 -999 -999 -999 -999
2007-08-08 10:47 51°20.044 2°36.841 -999 -999 -999 -999 -999
2007-08-08 10:48 51°20.038 2°36.835 -999 -999 -999 -999 -999
2007-08-08 10:49 51°20.031 2°36.825 -999 -999 -999 -999 -999
2007-08-08 10:50 51°20.025 2°36.813 -999 -999 -999 -999 -999
2007-08-08 10:51 51°20.019 2°36.802 -999 -999 -999 -999 -999
2007-08-08 10:52 51°20.007 2°36.801 -999 -999 -999 -999 -999
2007-08-08 10:53 51°19.958 2°36.797 -999 -999 -999 -999 -999
2007-08-08 10:54 51°19.944 2°36.781 -999 -999 -999 -999 -999
2007-08-08 10:55 51°19.938 2°36.775 -999 -999 -999 -999 -999
2007-08-08 10:56 51°19.932 2°36.769 -999 -999 -999 -999 -999
2007-08-08 10:57 51°19.927 2°36.762 -999 -999 -999 -999 -999
2007-08-08 10:58 51°19.92 2°36.755 -999 -999 -999 -999 -999
2007-08-08 10:59 51°19.913 2°36.747 -999 -999 -999 -999 -999
2007-08-08 11:00 51°19.907 2°36.737 -999 -999 -999 -999 -999
2007-08-08 11:01 51°19.901 2°36.727 -999 -999 -999 -999 -999
2007-08-08 11:02 51°19.894 2°36.718 -999 -999 -999 -999 -999
2007-08-08 11:03 51°19.886 2°36.71 -999 -999 -999 -999 -999
2007-08-08 11:04 51°19.885 2°36.682 -999 -999 -999 -999 -999
2007-08-08 11:05 51°19.943 2°36.659 -999 -999 -999 -999 -999
2007-08-08 11:06 51°19.952 2°36.674 -999 -999 -999 -999 -999
2007-08-08 11:07 51°19.945 2°36.674 -999 -999 -999 -999 -999
2007-08-08 11:08 51°19.936 2°36.669 -999 -999 -999 -999 -999
2007-08-08 11:09 51°19.927 2°36.663 -999 -999 -999 -999 -999
2007-08-08 11:10 51°19.919 2°36.657 -999 -999 -999 -999 -999
2007-08-08 11:11 51°19.909 2°36.652 -999 -999 -999 -999 -999
2007-08-08 11:12 51°19.9 2°36.649 -999 -999 -999 -999 -999
2007-08-08 11:13 51°19.892 2°36.657 -999 -999 -999 -999 -999
2007-08-08 11:14 51°19.885 2°36.673 -999 -999 -999 -999 -999
2007-08-08 11:15 51°19.885 2°36.697 -999 -999 -999 -999 -999
2007-08-08 11:16 51°19.885 2°36.714 -999 -999 -999 -999 -999
2007-08-08 11:17 51°19.89 2°36.732 -999 -999 -999 -999 -999
2007-08-08 11:18 51°19.898 2°36.756 -999 -999 -999 -999 -999
2007-08-08 11:19 51°19.909 2°36.776 -999 -999 -999 -999 -999
2007-08-08 11:20 51°19.921 2°36.795 -999 -999 -999 -999 -999
2007-08-08 11:21 51°19.932 2°36.812 -999 -999 -999 -999 -999
2007-08-08 11:22 51°19.945 2°36.83 -999 -999 -999 -999 -999
2007-08-08 11:23 51°19.961 2°36.851 -999 -999 -999 -999 -999
2007-08-08 11:24 51°19.978 2°36.875 -999 -999 -999 -999 -999
2007-08-08 11:25 51°19.987 2°36.888 -999 -999 -999 -999 -999
2007-08-08 11:26 51°19.985 2°36.889 -999 -999 -999 -999 -999
2007-08-08 11:27 51°19.974 2°36.881 -999 -999 -999 -999 -999
2007-08-08 11:28 51°19.965 2°36.867 -999 -999 -999 -999 -999
2007-08-08 11:29 51°19.956 2°36.851 -999 -999 -999 -999 -999
2007-08-08 11:30 51°19.948 2°36.836 -999 -999 -999 -999 -999
2007-08-08 11:31 51°19.941 2°36.822 -999 -999 -999 -999 -999
2007-08-08 11:32 51°19.934 2°36.806 -999 -999 -999 -999 -999
2007-08-08 11:33 51°19.926 2°36.789 -999 -999 -999 -999 -999
2007-08-08 11:34 51°19.918 2°36.773 -999 -999 -999 -999 -999
2007-08-08 11:35 51°19.91 2°36.757 -999 -999 -999 -999 -999
2007-08-08 11:36 51°19.902 2°36.742 -999 -999 -999 -999 -999
2007-08-08 11:37 51°19.894 2°36.726 -999 -999 -999 -999 -999
2007-08-08 11:38 51°19.884 2°36.713 -999 -999 -999 -999 -999
2007-08-08 11:39 51°19.874 2°36.712 -999 -999 -999 -999 -999
2007-08-08 11:40 51°19.871 2°36.734 -999 -999 -999 -999 -999
2007-08-08 11:41 51°19.887 2°36.762 -999 -999 -999 -999 -999
2007-08-08 11:42 51°19.909 2°36.777 -999 -999 -999 -999 -999
2007-08-08 11:43 51°19.943 2°36.776 -999 -999 -999 -999 -999
2007-08-08 11:44 51°19.971 2°36.785 -999 -999 -999 -999 -999
2007-08-08 11:45 51°19.983 2°36.795 -999 -999 -999 -999 -999
2007-08-08 11:46 51°19.987 2°36.795 -999 -999 -999 -999 -999
2007-08-08 11:47 51°19.986 2°36.793 -999 -999 -999 -999 -999
2007-08-08 11:48 51°19.975 2°36.779 -999 -999 -999 -999 -999
2007-08-08 11:49 51°19.963 2°36.76 -999 -999 -999 -999 -999
2007-08-08 11:50 51°19.953 2°36.74 -999 -999 -999 -999 -999
2007-08-08 11:51 51°19.942 2°36.72 -999 -999 -999 -999 -999
2007-08-08 11:52 51°19.932 2°36.7 -999 -999 -999 -999 -999
2007-08-08 11:53 51°19.92 2°36.681 -999 -999 -999 -999 -999
2007-08-08 11:54 51°19.909 2°36.663 -999 -999 -999 -999 -999
2007-08-08 11:55 51°19.898 2°36.672 -999 -999 -999 -999 -999
2007-08-08 11:56 51°19.923 2°36.714 -999 -999 -999 -999 -999
2007-08-08 11:57 51°19.939 2°36.697 -999 -999 -999 -999 -999
2007-08-08 11:58 51°19.931 2°36.677 -999 -999 -999 -999 -999
2007-08-08 11:59 51°19.92 2°36.657 -999 -999 -999 -999 -999
2007-08-08 12:00 51°19.912 2°36.624 -999 -999 -999 -999 -999
2007-08-08 12:01 51°19.938 2°36.561 -999 -999 -999 -999 -999
2007-08-08 12:02 51°19.991 2°36.582 -999 -999 -999 -999 -999
2007-08-08 12:03 51°20.039 2°36.664 -999 -999 -999 -999 -999
2007-08-08 12:04 51°20.044 2°36.714 -999 -999 -999 -999 -999
2007-08-08 12:05 51°20.027 2°36.745 -999 -999 -999 -999 -999
2007-08-08 12:06 51°20 2°36.756 -999 -999 -999 -999 -999
2007-08-08 12:07 51°19.979 2°36.757 -999 -999 -999 -999 -999
2007-08-08 12:08 51°19.964 2°36.752 -999 -999 -999 -999 -999
2007-08-08 12:09 51°19.95 2°36.742 -999 -999 -999 -999 -999
2007-08-08 12:10 51°19.938 2°36.727 -999 -999 -999 -999 -999
2007-08-08 12:11 51°19.926 2°36.709 -999 -999 -999 -999 -999
2007-08-08 12:12 51°19.915 2°36.689 -999 -999 -999 -999 -999
2007-08-08 12:13 51°19.903 2°36.666 -999 -999 -999 -999 -999
2007-08-08 12:14 51°19.891 2°36.64 -999 -999 -999 -999 -999
2007-08-08 12:15 51°19.88 2°36.612 -999 -999 -999 -999 -999
2007-08-08 12:16 51°19.864 2°36.599 -999 -999 -999 -999 -999
2007-08-08 12:17 51°19.846 2°36.602 -999 -999 -999 -999 -999
2007-08-08 12:18 51°19.832 2°36.6 -999 -999 -999 -999 -999
2007-08-08 12:19 51°19.82 2°36.593 -999 -999 -999 -999 -999
2007-08-08 12:20 51°19.807 2°36.584 -999 -999 -999 -999 -999
2007-08-08 12:21 51°19.779 2°36.607 -999 -999 -999 -999 -999
2007-08-08 12:22 51°19.726 2°36.582 -999 -999 -999 -999 -999
2007-08-08 12:23 51°19.699 2°36.536 -999 -999 -999 -999 -999
2007-08-08 12:24 51°19.683 2°36.498 -999 -999 -999 -999 -999
2007-08-08 12:25 51°19.671 2°36.463 -999 -999 -999 -999 -999
2007-08-08 12:26 51°19.659 2°36.428 -999 -999 -999 -999 -999
2007-08-08 12:27 51°19.648 2°36.395 -999 -999 -999 -999 -999
2007-08-08 12:28 51°19.637 2°36.363 -999 -999 -999 -999 -999
2007-08-08 12:29 51°19.623 2°36.335 -999 -999 -999 -999 -999
2007-08-08 12:30 51°19.608 2°36.31 -999 -999 -999 -999 -999
2007-08-08 12:31 51°19.593 2°36.287 -999 -999 -999 -999 -999
2007-08-08 12:32 51°19.578 2°36.262 -999 -999 -999 -999 -999
2007-08-08 12:33 51°19.551 2°36.198 -999 -999 -999 -999 -999
2007-08-08 12:34 51°19.491 2°36.182 -999 -999 -999 -999 -999
2007-08-08 12:35 51°19.464 2°36.265 -999 -999 -999 -999 -999
2007-08-08 12:36 51°19.422 2°36.462 -999 -999 -999 -999 -999
2007-08-08 12:37 51°19.348 2°36.702 -999 -999 -999 -999 -999
2007-08-08 12:38 51°19.269 2°36.952 -999 -999 -999 -999 -999
2007-08-08 12:39 51°19.193 2°37.207 -999 -999 -999 -999 -999
2007-08-08 12:40 51°19.12 2°37.466 -999 -999 -999 -999 -999
2007-08-08 12:41 51°19.048 2°37.725 -999 -999 -999 -999 -999
2007-08-08 12:42 51°18.977 2°37.986 -999 -999 -999 -999 -999
2007-08-08 12:43 51°18.907 2°38.246 -999 -999 -999 -999 -999
2007-08-08 12:44 51°18.837 2°38.508 -999 -999 -999 -999 -999
2007-08-08 12:45 51°18.766 2°38.768 -999 -999 -999 -999 -999
2007-08-08 12:46 51°18.693 2°39.026 -999 -999 -999 -999 -999
2007-08-08 12:47 51°18.619 2°39.283 -999 -999 -999 -999 -999
2007-08-08 12:48 51°18.546 2°39.54 -999 -999 -999 -999 -999
2007-08-08 12:49 51°18.474 2°39.797 -999 -999 -999 -999 -999
2007-08-08 12:50 51°18.401 2°40.053 -999 -999 -999 -999 -999
2007-08-08 12:51 51°18.329 2°40.304 -999 -999 -999 -999 -999
2007-08-08 12:52 51°18.247 2°40.544 -999 -999 -999 -999 -999
2007-08-08 12:53 51°18.166 2°40.787 -999 -999 -999 -999 -999
2007-08-08 12:54 51°18.085 2°41.03 -999 -999 -999 -999 -999
2007-08-08 12:55 51°18 2°41.272 -999 -999 -999 -999 -999
2007-08-08 12:56 51°17.914 2°41.516 -999 -999 -999 -999 -999
2007-08-08 12:57 51°17.827 2°41.758 -999 -999 -999 -999 -999
2007-08-08 12:58 51°17.74 2°42.002 -999 -999 -999 -999 -999
2007-08-08 12:59 51°17.652 2°42.246 -999 -999 -999 -999 -999
2007-08-08 13:00 51°17.566 2°42.493 -999 -999 -999 -999 -999
2007-08-08 13:01 51°17.478 2°42.74 -999 -999 -999 -999 -999
2007-08-08 13:02 51°17.395 2°42.978 -999 -999 -999 -999 -999
2007-08-08 13:03 51°17.311 2°43.214 -999 -999 -999 -999 -999
2007-08-08 13:04 51°17.222 2°43.444 -999 -999 -999 -999 -999
2007-08-08 13:05 51°17.131 2°43.682 -999 -999 -999 -999 -999
2007-08-08 13:06 51°17.041 2°43.922 -999 -999 -999 -999 -999
2007-08-08 13:07 51°16.95 2°44.163 -999 -999 -999 -999 -999
2007-08-08 13:08 51°16.857 2°44.405 -999 -999 -999 -999 -999
2007-08-08 13:09 51°16.767 2°44.651 -999 -999 -999 -999 -999
2007-08-08 13:10 51°16.676 2°44.899 -999 -999 -999 -999 -999
2007-08-08 13:11 51°16.586 2°45.147 -999 -999 -999 -999 -999
2007-08-08 13:12 51°16.496 2°45.398 -999 -999 -999 -999 -999
2007-08-08 13:13 51°16.406 2°45.648 -999 -999 -999 -999 -999
2007-08-08 13:14 51°16.315 2°45.897 -999 -999 -999 -999 -999
2007-08-08 13:15 51°16.225 2°46.147 -999 -999 -999 -999 -999
2007-08-08 13:16 51°16.135 2°46.395 -999 -999 -999 -999 -999
2007-08-08 13:17 51°16.044 2°46.642 -999 -999 -999 -999 -999
2007-08-08 13:18 51°15.952 2°46.884 -999 -999 -999 -999 -999
2007-08-08 13:19 51°15.873 2°47.132 -999 -999 -999 -999 -999
2007-08-08 13:20 51°15.804 2°47.386 -999 -999 -999 -999 -999
2007-08-08 13:21 51°15.749 2°47.644 -999 -999 -999 -999 -999
2007-08-08 13:22 51°15.69 2°47.898 -999 -999 -999 -999 -999
2007-08-08 13:23 51°15.633 2°48.153 -999 -999 -999 -999 -999
2007-08-08 13:24 51°15.586 2°48.412 -999 -999 -999 -999 -999
2007-08-08 13:25 51°15.548 2°48.677 -999 -999 -999 -999 -999
2007-08-08 13:26 51°15.508 2°48.941 -999 -999 -999 -999 -999
2007-08-08 13:27 51°15.474 2°49.206 -999 -999 -999 -999 -999
2007-08-08 13:28 51°15.447 2°49.471 -999 -999 -999 -999 -999
2007-08-08 13:29 51°15.42 2°49.737 -999 -999 -999 -999 -999
2007-08-08 13:30 51°15.394 2°50.005 -999 -999 -999 -999 -999
2007-08-08 13:31 51°15.365 2°50.274 -999 -999 -999 -999 -999
2007-08-08 13:32 51°15.336 2°50.543 -999 -999 -999 -999 -999
2007-08-08 13:33 51°15.304 2°50.809 -999 -999 -999 -999 -999
2007-08-08 13:34 51°15.244 2°51.063 -999 -999 -999 -999 -999
2007-08-08 13:35 51°15.227 2°51.33 -999 -999 -999 -999 -999
2007-08-08 13:36 51°15.213 2°51.598 -999 -999 -999 -999 -999
2007-08-08 13:37 51°15.199 2°51.867 -999 -999 -999 -999 -999
2007-08-08 13:38 51°15.139 2°52.126 -999 -999 -999 -999 -999
2007-08-08 13:39 51°15.08 2°52.388 -999 -999 -999 -999 -999
2007-08-08 13:40 51°15.019 2°52.65 -999 -999 -999 -999 -999
2007-08-08 13:41 51°14.959 2°52.913 -999 -999 -999 -999 -999
2007-08-08 13:42 51°14.901 2°53.178 -999 -999 -999 -999 -999
2007-08-08 13:43 51°14.843 2°53.443 -999 -999 -999 -999 -999
2007-08-08 13:44 51°14.784 2°53.709 -999 -999 -999 -999 -999
2007-08-08 13:45 51°14.72 2°53.973 -999 -999 -999 -999 -999
2007-08-08 13:46 51°14.64 2°54.26 -999 -999 -999 -999 -999
2007-08-08 13:47 51°14.548 2°54.546 -999 -999 -999 -999 -999
2007-08-08 13:48 51°14.443 2°54.821 -999 -999 -999 -999 -999
2007-08-08 13:49 51°14.343 2°55.096 -999 -999 -999 -999 -999
2007-08-08 13:50 51°14.215 2°55.339 -999 -999 -999 -999 -999
2007-08-08 13:51 51°14.086 2°55.442 -999 -999 -999 -999 -999
2007-08-08 13:52 51°13.988 2°55.513 -999 -999 -999 -999 -999
2007-08-08 13:53 51°13.873 2°55.597 -999 -999 -999 -999 -999
2007-08-08 13:54 51°13.769 2°55.702 -999 -999 -999 -999 -999
2007-08-08 13:55 51°13.699 2°55.815 -999 -999 -999 -999 -999
2007-08-08 13:56 51°13.646 2°55.935 -999 -999 -999 -999 -999
2007-08-08 13:57 51°13.619 2°56.03 -999 -999 -999 -999 -999
2007-08-08 13:58 51°13.607 2°56.083 -999 -999 -999 -999 -999
2007-08-08 13:59 51°13.601 2°56.096 -999 -999 -999 -999 -999